#timestamp,LO_Frequency,Hit,StdDev 
1458072015.5,286046997.2,N
1458072035.3,286046995.4,N
1458072055.2,286047000.6,N
1458072075.9,286047000.2,N
1458072095.7,286046998.4,N
1458072115.5,286046996.9,N
1458072135.4,286047001.1,N
1458072155.2,286047000.3,N
1458072175.0,286047002.3,N
1458072175.9,286047002.3,N
1458072195.8,286047003.9,N
1458072215.6,286047004.4,N
1458072235.4,286047003.6,N
1458072255.3,286047003.5,N
1458072275.1,286047003.8,N
1458072295.8,286047002.2,N
1458072315.7,286046997.1,N
1458072335.5,286046995.2,N
1458072355.3,286046996.5,N
1458072375.2,286046997.9,N
1458072395.9,286046997.7,N
1458072415.7,286046997.7,N
1458072435.6,286046994.1,N
1458072455.4,286046993.5,N
1458072475.2,286046997.5,N
1458072495.0,286046995.7,N
1458072496.0,286046995.7,N
1458072515.8,286046998.6,N
1458072535.6,286046997.2,N
1458072555.4,286046997.6,N
1458072575.3,286046993.3,N
1458072595.1,286046995.8,N
1458072615.8,286046996.2,N
1458072635.7,286046996.3,N
1458072655.5,286046998.9,N
1458072675.3,286047000.7,N
1458072695.2,286046998.6,N
1458072715.9,286047001.7,N
1458072735.7,286047002.0,N
1458072755.6,286047003.1,N
1458072775.4,286047004.8,N
1458072795.2,286047003.5,N
1458072815.1,286047009.1,N
1458072816.0,286047009.1,N
1458072835.8,286047010.8,N
1458072855.6,286047009.7,N
1458072875.5,286047009.9,N
1458072895.3,286047014.0,N
1458072915.1,286047013.0,N
1458072935.9,286047018.2,Y
1458072955.7,286047012.7,P
1458072975.5,286047011.1,N
1458072995.3,286047015.5,P
1458073015.2,286047012.7,N
1458073035.0,286047012.8,N
1458073035.9,286047012.8,N
1458073055.7,286047012.8,N
1458073075.6,286047011.6,N
1458073095.4,286047009.4,N
1458073115.2,286047016.6,Y
1458073135.1,286047004.4,P
1458073136.0,286047004.4,N
1458073155.8,286047004.4,N
1458073175.6,286047004.0,N
1458073195.5,286047003.5,N
1458073215.3,286047003.2,N
1458073235.1,286047007.1,N
1458073255.9,286047005.2,N
1458073275.7,286047003.1,N
1458073295.5,286047005.4,N
1458073315.4,286047008.5,Y
1458073335.2,286047003.3,P
1458073355.0,286047007.5,P
1458073355.9,286047007.5,P
1458073375.8,286047005.2,N
1458073395.6,286047005.7,Y
1458073415.4,286046998.6,P
1458073435.3,286046997.2,N
1458073455.1,286046995.1,N
1458073456.0,286046995.1,N
1458073475.8,286046996.2,N
1458073495.7,286046995.7,N
1458073515.5,286046995.0,N
1458073535.3,286046995.5,N
1458073555.2,286046996.2,N
1458073575.9,286046995.7,N
1458073595.7,286046996.0,N
1458073615.6,286046993.8,N
1458073635.4,286046997.1,N
1458073655.2,286046995.3,N
1458073675.0,286046996.0,N
1458073675.9,286046996.0,N
1458073695.8,286046993.3,N
1458073715.6,286046994.1,N
1458073735.4,286046993.9,N
1458073755.3,286046996.1,N
1458073775.1,286046994.9,N
1458073795.8,286046991.7,Y
1458073815.7,286046995.1,P
1458073835.5,286046995.1,P
1458073855.3,286046994.1,P
1458073875.2,286046993.3,Y
1458073895.0,286046998.5,P
1458073895.9,286046998.5,N
1458073915.7,286047002.7,N
1458073935.6,286046996.6,N
1458073955.4,286047002.1,N
1458073975.2,286047000.0,N
1458073995.1,286046998.8,N
1458073996.0,286046998.8,N
1458074015.8,286046996.6,N
1458074035.6,286046999.6,N
1458074055.5,286046997.4,N
1458074075.3,286046996.9,N
1458074095.1,286046996.1,N
1458074115.9,286046991.7,Y
1458074135.7,286046992.1,P
1458074155.5,286046997.2,N
1458074175.4,286046999.3,N
1458074195.2,286046996.8,N
1458074215.0,286046999.3,N
1458074215.9,286046999.3,N
1458074235.8,286046996.1,N
1458074255.6,286046993.5,N
1458074275.4,286046993.5,N
1458074295.2,286046994.7,N
1458074315.1,286046992.2,Y
1458074316.0,286046992.2,P
1458074335.8,286046996.1,N
1458074355.6,286046995.9,N
1458074375.5,286046998.0,N
1458074395.3,286046995.8,N
1458074415.1,286046999.2,N
1458074435.9,286046999.3,N
1458074455.7,286046996.9,N
1458074475.5,286046999.0,N
1458074495.4,286046999.1,N
1458074515.2,286046999.1,N
1458074535.0,286046999.5,N
1458074535.9,286046999.5,N
1458074555.8,286046998.0,N
1458074575.6,286046997.5,N
1458074595.4,286046999.2,N
1458074615.3,286046999.5,N
1458074635.1,286046997.7,N
1458074636.0,286046997.7,N
1458074655.8,286046995.5,N
1458074675.7,286046994.0,Y
1458074695.5,286046996.2,P
1458074715.3,286046993.7,P
1458074735.1,286046995.6,N
1458074755.9,286046996.4,N
1458074775.7,286046997.5,N
1458074795.5,286046996.2,N
1458074815.4,286046997.7,N
1458074835.2,286046997.6,N
1458074855.0,286046997.6,N
1458074855.9,286046997.6,N
1458074875.8,286046995.8,Y
1458074895.6,286046999.4,P
1458074915.4,286047000.8,N
1458074935.3,286046999.8,N
1458074955.1,286047000.1,N
1458074975.8,286046998.1,N
1458074995.7,286046998.5,N
1458075015.5,286047000.5,N
1458075035.3,286047001.6,N
1458075055.2,286047001.5,N
1458075075.9,286047002.1,N
1458075095.7,286047005.6,Y
1458075115.6,286047002.7,P
1458075135.4,286047002.5,N
1458075155.2,286047002.3,N
1458075175.1,286047000.1,N
1458075176.0,286047000.1,N
1458075195.8,286047000.0,N
1458075215.6,286047004.0,Y
1458075235.5,286046999.9,P
1458075255.3,286047001.1,N
1458075275.1,286047002.1,P
1458075295.9,286047000.2,N
1458075315.7,286047001.7,N
1458075335.5,286047002.5,Y
1458075355.4,286047000.9,P
1458075375.2,286047001.1,P
1458075395.0,286047002.2,P
1458075395.9,286047002.2,Y
1458075415.8,286046997.6,P
1458075435.6,286046996.3,N
1458075455.4,286046997.0,N
1458075475.3,286046996.6,N
1458075495.1,286046998.1,N
1458075496.0,286046998.1,N
1458075515.8,286047000.0,N
1458075535.6,286047002.3,N
1458075555.5,286047000.0,N
1458075575.3,286047000.2,N
1458075595.1,286047002.5,N
